Weather History for KRDR - November, 2012

Change the Weather History Date:

Tuesday, November 27, 2012

  Actual Average Record
Temperature  
Mean Temperature 21 °F -  
Max Temperature 26 °F 28 °F 44 °F (1998)
Min Temperature 16 °F 13 °F -15 °F (2014)
Degree Days  
Heating Degree Days 44    
Moisture  
Dew Point 14 °F    
Average Humidity 78    
Maximum Humidity 86    
Minimum Humidity 68    
Precipitation  
Precipitation 0.00 in - - ()
Sea Level Pressure  
Sea Level Pressure 30.17 in    
Wind  
Wind Speed 6 mph (North)    
Max Wind Speed 14 mph    
Max Gust Speed -    
Visibility 10 miles    
Events Snow    
Averages and records for this station are not official NWS values.
T = Trace of Precipitation, MM = Missing Value Source: NWS Daily Summary

Daily Weather History Graph

Daily Weather History Graph

Search for Another Location

Airport or City:

Trip Planner

Search our weather history database for the weather conditions in past years. The results will help you decide how hot, cold, wet, or windy it might be!

Date:

Astronomy

Nov. 27, 2012 Rise Set
Actual Time 7:53 AM CST 4:40 PM CST
Civil Twilight 7:18 AM CST 5:15 PM CST
Nautical Twilight 6:39 AM CST 5:54 PM CST
Astronomical Twilight 6:02 AM CST 6:31 PM CST
Moon 4:14 PM CST (11/27) 6:58 AM CST (11/27)
Length of Visible Light 9h 57m
Length of Day
8h 47m
Waxing Gibbous, 99% of the Moon is Illuminated
Nov 27
Waxing Gibbous
Nov 28
Full
Dec 6
Last Quarter
Dec 13
New
Dec 19
First Quarter

Hourly Weather History & Observations

Time (CST) Temp. Windchill Dew Point Humidity Pressure Visibility Wind Dir Wind Speed Gust Speed Precip Events Conditions
12:55 AM 20.3 °F 13.8 °F 15.6 °F 82% 30.14 in 10.0 mi SW 4.6 mph - N/A   Partly Cloudy
1:55 AM 23.0 °F 15.8 °F 17.8 °F 80% 30.13 in 10.0 mi SSW 5.8 mph - N/A   Mostly Cloudy
2:26 AM 23.0 °F 15.8 °F 17.6 °F 80% 30.13 in 10.0 mi SSW 5.8 mph - N/A   Mostly Cloudy
2:55 AM 22.6 °F 16.5 °F 17.8 °F 82% 30.12 in 10.0 mi SSW 4.6 mph - N/A   Overcast
2:56 AM 23.0 °F 17.0 °F 17.6 °F 80% 30.13 in 10.0 mi SSW 4.6 mph - N/A   Overcast
3:16 AM 23.0 °F 17.0 °F 17.6 °F 80% 30.12 in 10.0 mi SW 4.6 mph - N/A   Overcast
3:55 AM 24.1 °F 18.2 °F 19.4 °F 82% 30.12 in 10.0 mi SW 4.6 mph - N/A   Overcast
4:55 AM 25.7 °F 20.1 °F 20.7 °F 81% 30.11 in 10.0 mi West 4.6 mph - N/A   Overcast
5:25 AM 26.6 °F 20.0 °F 21.2 °F 80% 30.12 in 10.0 mi NW 5.8 mph - N/A   Overcast
5:46 AM 26.6 °F 18.2 °F 21.2 °F 80% 30.12 in 10.0 mi North 8.1 mph - N/A   Overcast
5:55 AM 25.9 °F 17.4 °F 21.2 °F 82% 30.12 in 10.0 mi North 8.1 mph - N/A   Overcast
6:04 AM 24.8 °F 12.9 °F 21.2 °F 86% 30.12 in 10.0 mi NNE 13.8 mph - N/A   Overcast
6:41 AM 23.0 °F 11.1 °F 17.6 °F 80% 30.13 in 10.0 mi NNE 12.7 mph - N/A   Overcast
6:55 AM 22.3 °F 12.2 °F 17.4 °F 82% 30.13 in 10.0 mi NNE 9.2 mph - N/A   Overcast
7:28 AM 21.2 °F 10.9 °F 15.8 °F 80% 30.13 in 10.0 mi NNE 9.2 mph - N/A   Overcast
7:55 AM 21.0 °F 9.3 °F 16.2 °F 81% 30.14 in 10.0 mi NNE 11.5 mph - N/A   Overcast
8:55 AM 18.7 °F 8.6 °F 13.5 °F 80% 30.15 in 10.0 mi NNE 8.1 mph - N/A   Overcast
9:55 AM 18.3 °F 7.3 °F 11.1 °F 73% 30.17 in 10.0 mi North 9.2 mph - N/A   Overcast
10:55 AM 18.5 °F 9.3 °F 10.9 °F 72% 30.18 in 10.0 mi NNE 6.9 mph - N/A   Overcast
11:06 AM 17.6 °F 8.2 °F 10.4 °F 73% 30.19 in 10.0 mi NNE 6.9 mph - N/A Snow Light Snow
11:10 AM 17.6 °F 8.2 °F 10.4 °F 73% 30.19 in 10.0 mi NNE 6.9 mph - N/A Snow Light Snow
11:13 AM 17.6 °F 7.3 °F 10.4 °F 73% 30.18 in 10.0 mi NNE 8.1 mph - N/A   Overcast
11:16 AM 17.6 °F 7.3 °F 10.4 °F 73% 30.19 in 10.0 mi North 8.1 mph - N/A   Overcast
11:23 AM 17.6 °F 8.2 °F 10.4 °F 73% 30.18 in 10.0 mi NNE 6.9 mph - N/A   Overcast
11:44 AM 19.4 °F 11.5 °F 10.4 °F 68% 30.18 in 10.0 mi North 5.8 mph - N/A   Overcast
11:48 AM 19.4 °F 11.5 °F 10.4 °F 68% 30.18 in 10.0 mi North 5.8 mph - N/A   Overcast
11:55 AM 18.5 °F 11.7 °F 10.9 °F 72% 30.18 in 10.0 mi North 4.6 mph - 0.00 in   Overcast
12:55 PM 18.9 °F 9.8 °F 12.2 °F 75% 30.18 in 10.0 mi North 6.9 mph - N/A   Overcast
1:18 PM 19.4 °F 11.5 °F 12.2 °F 74% 30.17 in 10.0 mi NNW 5.8 mph - N/A Snow Light Snow
1:34 PM 19.4 °F 10.4 °F 12.2 °F 74% 30.17 in 10.0 mi North 6.9 mph - N/A   Overcast
1:55 PM 19.2 °F 11.3 °F 12.7 °F 76% 30.17 in 10.0 mi North 5.8 mph - 0.00 in   Overcast
2:19 PM 19.4 °F 14.3 °F 12.2 °F 74% 30.18 in 10.0 mi NNW 3.5 mph - N/A Snow Light Snow
2:55 PM 19.6 °F 11.7 °F 13.3 °F 77% 30.18 in 10.0 mi North 5.8 mph - 0.00 in Snow Light Snow
3:27 PM 19.4 °F 11.5 °F 14.0 °F 80% 30.19 in 10.0 mi NNE 5.8 mph - N/A   Overcast
3:55 PM 19.2 °F 12.5 °F 13.5 °F 78% 30.19 in 10.0 mi NNE 4.6 mph - 0.00 in   Overcast
4:55 PM 17.2 °F 10.2 °F 12.6 °F 82% 30.21 in 10.0 mi NNE 4.6 mph - N/A   Overcast
5:55 PM 18.3 °F 13.1 °F 13.5 °F 81% 30.23 in 10.0 mi NNE 3.5 mph - N/A   Overcast
6:55 PM 17.8 °F - 12.9 °F 81% 30.23 in 10.0 mi Calm Calm - N/A   Overcast
7:55 PM 18.1 °F 11.3 °F 13.6 °F 83% 30.25 in 10.0 mi ENE 4.6 mph - N/A   Overcast
8:55 PM 16.9 °F 11.5 °F 12.0 °F 81% 30.27 in 10.0 mi ENE 3.5 mph - N/A   Overcast
9:55 PM 16.3 °F - 11.7 °F 82% 30.28 in 10.0 mi Calm Calm - N/A   Overcast
10:55 PM 17.1 °F 11.7 °F 11.5 °F 79% 30.29 in 10.0 mi North 3.5 mph - N/A   Overcast
11:55 PM 17.2 °F - 11.1 °F 77% 30.29 in 10.0 mi Calm Calm - N/A   Overcast